Weather History for Talkeetna, AK

Change the Weather History Date:

Wednesday, August 20, 2014

  Actual Average Record
Temperature  
Mean Temperature 55 °F -  
Max Temperature 66 °F 62 °F 82 °F (1977)
Min Temperature 44 °F 45 °F 33 °F (1969)
Degree Days  
Heating Degree Days 10    
Growing Degree Days 5 (Base 50)    
Moisture  
Dew Point 49 °F    
Average Humidity 80    
Maximum Humidity 93    
Minimum Humidity 53    
Precipitation  
Precipitation 0.00 in - - ()
Sea Level Pressure  
Sea Level Pressure 30.07 in    
Wind  
Wind Speed 1 mph (SSW)    
Max Wind Speed 7 mph    
Max Gust Speed -    
Visibility 10 miles    
Events      
Averages and records for this station are not official NWS values.
T = Trace of Precipitation, MM = Missing Value Source: NWS Daily Summary

Daily Weather History Graph

Daily Weather History Graph

Search for Another Location

Airport:

Trip Planner

Search our weather history database for the weather conditions in past years. The results will help you decide how hot, cold, wet, or windy it might be!

Date:

Astronomy

Aug. 20, 2014 Rise Set
Actual Time 6:16 AM AKDT 9:48 PM AKDT
Civil Twilight 5:22 AM AKDT 10:42 PM AKDT
Nautical Twilight 3:58 AM AKDT 12:03 AM AKDT
Astronomical Twilight 2:36 AM AKDT 1:31 AM AKDT
Moon 1:27 AM AKDT (8/20) 7:15 PM AKDT (8/20)
Length of Visible Light 17h 20m
Length of Day
15h 31m
Waning Crescent, 19% of the Moon is Illuminated
Aug 20
Waning Crescent
Aug 25
New
Sep 2
First Quarter
Sep 8
Full
Sep 15
Last Quarter

Hourly Weather History & Observations

Time (AKDT) Temp. Dew Point Humidity Pressure Visibility Wind Dir Wind Speed Gust Speed Precip Events Conditions
12:53 AM 51.1 °F 48.9 °F 92% 29.99 in 10.0 mi Calm Calm - N/A   Clear
1:53 AM 50.0 °F 48.0 °F 93% 30.01 in 10.0 mi Calm Calm - N/A   Mostly Cloudy
2:53 AM 50.0 °F 46.9 °F 89% 30.02 in 10.0 mi Calm Calm - N/A   Overcast
3:53 AM 48.0 °F 46.0 °F 93% 30.02 in 10.0 mi Calm Calm - N/A   Mostly Cloudy
4:32 AM 46.9 °F 45.0 °F 93% 30.02 in 10.0 mi Calm Calm - N/A   Partly Cloudy
4:53 AM 46.0 °F 44.1 °F 93% 30.03 in 10.0 mi Calm Calm - N/A   Partly Cloudy
5:53 AM 45.0 °F 42.1 °F 90% 30.05 in 10.0 mi Calm Calm - N/A   Clear
6:53 AM 46.0 °F 43.0 °F 89% 30.06 in 10.0 mi Calm Calm - N/A   Scattered Clouds
7:53 AM 48.9 °F 46.9 °F 93% 30.07 in 10.0 mi Calm Calm - N/A   Overcast
8:53 AM 50.0 °F 46.9 °F 89% 30.08 in 10.0 mi Calm Calm - N/A   Overcast
9:53 AM 52.0 °F 48.9 °F 89% 30.09 in 10.0 mi Calm Calm - N/A   Overcast
10:53 AM 53.1 °F 46.9 °F 80% 30.10 in 10.0 mi Calm Calm - N/A   Overcast
11:00 AM 54.0 °F 48.0 °F 80% 30.09 in 10.0 mi Calm Calm - N/A   Overcast
11:53 AM 55.0 °F 51.1 °F 86% 30.10 in 10.0 mi Calm Calm - N/A   Scattered Clouds
12:53 PM 59.0 °F 51.1 °F 75% 30.09 in 10.0 mi SW 3.5 mph - N/A   Scattered Clouds
1:53 PM 63.0 °F 52.0 °F 67% 30.09 in 10.0 mi SSW 5.8 mph - N/A   Clear
2:53 PM 63.0 °F 51.1 °F 65% 30.09 in 10.0 mi SSW 4.6 mph - N/A   Scattered Clouds
3:53 PM 64.9 °F 52.0 °F 63% 30.08 in 10.0 mi Variable 4.6 mph - N/A   Scattered Clouds
4:53 PM 64.9 °F 53.1 °F 65% 30.08 in 10.0 mi SSW 6.9 mph - N/A   Scattered Clouds
5:53 PM 66.0 °F 53.1 °F 63% 30.07 in 10.0 mi South 4.6 mph - N/A   Scattered Clouds
6:53 PM 66.0 °F 54.0 °F 65% 30.07 in 10.0 mi Calm Calm - N/A   Partly Cloudy
7:53 PM 66.0 °F 48.9 °F 54% 30.07 in 10.0 mi SW 3.5 mph - N/A   Scattered Clouds
8:53 PM 64.0 °F 54.0 °F 70% 30.08 in 10.0 mi South 3.5 mph - N/A   Clear
9:53 PM 60.1 °F 54.0 °F 80% 30.09 in 10.0 mi Calm Calm - N/A   Clear
10:53 PM 57.9 °F 53.1 °F 84% 30.11 in 10.0 mi Calm Calm - N/A   Clear
11:53 PM 55.0 °F 51.1 °F 86% 30.12 in 10.0 mi Calm Calm - N/A   Mostly Cloudy